RH
54 23 13 11 13 11 10 7 6 8 10 8 8 8 9 9 12 16 11 39 38 39 62 72 95 93 91 89 89 90 90 89 91 91 90 91 91 90 91 89 84 78 82 80 76 75 78 82 86
18 14 12 12 14 10 7 6 9 9 9 9 9 10 10 11 9 12 17 35 38 40 64 56 97 95 92 90 89 89 90 90 91 91 90 91 90 90 90 88 85 77 84 79 78 76 79 85 89
34 12 13 12 13 12 9 7 8 9 10 10 11 9 9 12 12 19 19 27 38 47 59 62 96 95 93 92 91 90 90 90 90 90 90 90 90 90 88 87 84 78 82 78 75 78 83 88 91
14 13 13 14 11 8 8 8 8 9 9 10 10 11 9 9 15 19 22 32 37 56 55 87 95 94 94 92 91 91 91 91 91 90 90 90 90 89 89 89 85 80 83 81 78 80 87 90 90
14 13 15 14 12 10 7 6 9 11 10 10 11 12 11 10 16 18 27 39 41 60 59 68 96 94 92 90 92 92 92 92 92 91 90 90 89 90 90 90 87 84 82 82 84 87 88 89 88
17 14 17 14 11 8 8 8 10 12 11 11 13 13 13 11 17 21 29 40 42 61 66 74 92 94 93 93 92 93 93 92 92 92 91 90 90 91 90 89 86 83 83 86 88 89 89 88 87
19 15 16 16 15 13 10 9 13 13 13 11 10 15 13 12 14 19 29 39 47 62 67 75 73 84 96 95 96 95 92 91 92 93 92 92 93 92 90 87 84 83 83 89 90 90 89 87 85
17 17 19 17 17 15 10 12 12 13 13 10 11 15 15 12 14 16 27 41 49 73 75 71 68 68 77 84 96 96 95 93 93 94 93 95 93 92 89 86 84 83 83 90 90 89 88 87 84
16 24 22 18 15 13 10 11 12 12 13 13 12 13 12 11 13 16 22 51 54 75 78 80 65 65 66 74 87 96 95 95 95 92 95 93 64 70 74 70 86 86 88 90 90 89 88 87 85
22 26 20 14 12 13 13 14 14 15 15 15 14 13 13 12 14 18 18 24 60 75 80 79 72 66 62 54 80 88 86 78 74 70 81 63 62 60 54 68 88 89 91 92 90 89 88 71 47
21 27 20 16 14 14 15 16 14 16 19 17 18 17 16 15 16 17 17 19 25 55 69 76 79 70 62 57 63 69 74 74 69 70 72 64 56 55 48 61 61 64 83 64 70 72 48 43 41
26 23 22 20 19 19 20 18 19 19 21 17 18 18 18 18 17 17 18 17 18 40 52 69 73 77 71 58 56 53 57 73 84 78 74 63 54 56 53 53 52 54 53 52 52 49 46 43 41
26 24 22 21 21 21 21 24 24 25 21 20 19 19 20 19 18 17 17 16 16 24 44 56 64 78 79 74 60 61 56 55 61 75 69 55 50 58 48 52 45 44 44 48 48 45 41 44 42
28 27 25 24 24 24 28 28 27 27 22 22 22 21 20 20 19 18 18 18 18 21 36 50 55 76 75 81 80 63 60 54 56 64 63 65 54 61 52 53 42 41 38 44 43 41 40 43 41
37 45 39 35 31 32 29 35 32 25 21 22 21 21 19 19 18 20 19 19 19 18 29 49 58 69 80 71 80 80 60 65 58 65 69 66 61 65 60 52 46 44 42 59 46 46 42 43 40
65 60 79 46 36 32 32 39 25 20 20 20 20 21 21 19 18 19 20 18 17 18 24 40 46 57 76 74 71 72 79 70 74 74 66 68 64 64 62 51 48 50 58 52 43 43 46 43 41
94 91 73 51 32 32 30 34 23 20 20 21 21 19 19 19 18 18 19 18 17 17 22 32 50 52 64 71 64 70 76 82 79 82 73 70 66 64 62 55 53 63 55 56 45 47 48 44 42
79 80 59 52 34 28 31 30 24 20 21 21 21 20 20 20 18 18 19 19 18 18 22 25 42 54 60 60 65 61 70 72 78 84 80 77 74 70 67 58 58 56 48 50 44 51 45 43 41
52 44 38 28 24 31 32 30 26 22 21 21 20 19 19 19 19 17 18 20 21 22 25 25 33 52 52 56 61 64 64 72 76 80 81 79 79 77 75 64 62 56 48 49 55 51 54 46 46
61 57 48 36 32 36 36 34 26 23 23 21 20 20 20 19 18 20 20 21 26 25 26 25 28 37 49 49 52 61 60 59 74 82 82 80 80 80 79 71 67 57 48 55 55 56 50 47 48
74 76 64 59 43 35 36 36 30 22 20 20 20 20 19 19 19 19 22 28 35 36 35 29 28 31 39 48 48 68 72 76 88 92 87 86 82 81 80 75 71 64 54 54 59 59 56 51 51
66 46 56 56 56 68 36 46 31 23 20 18 17 18 17 18 18 18 20 23 27 30 33 32 31 27 34 48 58 74 76 80 80 82 87 86 87 85 82 80 77 75 62 58 59 56 55 54 57
64 43 45 45 59 63 56 72 40 24 24 20 20 25 25 27 28 27 30 29 31 35 42 43 38 32 33 42 56 68 78 74 71 82 88 88 89 87 85 83 82 79 68 62 61 63 63 54 54
40 55 56 57 74 95 59 66 44 28 24 20 28 32 33 34 34 33 34 35 36 38 44 47 42 37 39 45 64 70 80 79 78 83 91 92 91 89 89 85 83 81 75 67 63 66 65 61 58
59 68 96 98 98 92 46 57 47 25 22 25 35 35 36 36 36 34 34 32 34 40 45 46 42 37 39 44 64 71 74 79 81 79 86 90 94 94 94 88 87 84 80 73 65 67 68 66 63
70 75 85 100 100 66 34 60 43 31 26 27 30 32 31 31 31 30 30 29 30 35 38 41 39 42 38 48 57 67 72 71 73 77 79 80 88 91 90 90 88 86 84 80 76 73 68 71 66
64 91 60 75 60 79 89 72 49 41 36 30 29 27 28 27 27 27 27 29 31 37 41 44 42 39 44 48 50 70 73 74 73 74 76 80 80 86 90 91 91 91 88 86 83 75 75 72 73
87 73 98 96 99 99 74 49 66 54 41 40 40 38 34 29 26 27 27 29 30 37 40 47 46 41 43 48 53 61 66 71 72 72 75 78 82 82 90 91 91 91 90 89 87 83 77 76 75
97 100 100 100 100 100 97 99 98 62 46 55 60 57 52 48 44 30 27 26 28 34 38 44 47 51 53 51 53 58 69 70 73 75 74 73 76 84 89 91 92 91 93 91 91 89 84 81 80
95 100 100 100 100 100 100 100 89 77 78 73 72 69 64 54 50 48 46 38 29 29 34 40 46 49 54 57 59 62 63 66 75 78 72 76 76 77 84 90 93 92 91 92 93 93 92 87 85
Wind_Speed
8 12 11 7 9 9 17 21 7 5 5 4 4 7 12 14 11 12 8 11 7 0 11 16 11 15 17 20 21 21 21 22 23 22 21 21 19 19 17 17 18 18 17 18 18 16 15 15 15
13 10 7 9 10 14 12 3 4 6 7 3 9 14 16 12 5 10 9 14 7 4 10 17 11 14 17 19 20 21 22 22 23 23 22 21 20 20 18 17 16 19 17 18 17 16 17 15 14
15 11 11 10 14 17 16 5 4 2 6 9 12 11 10 9 4 7 16 11 2 8 9 16 10 11 15 18 19 20 21 21 22 22 23 21 20 19 18 16 16 20 17 17 18 17 16 15 12
9 8 10 13 20 20 17 15 3 9 9 4 9 12 9 8 5 6 11 6 4 8 10 18 13 10 14 16 19 20 21 21 22 21 22 22 20 19 17 15 17 19 17 17 18 17 16 14 12
9 8 14 19 20 20 20 13 8 12 10 8 8 14 13 5 3 9 9 3 3 11 9 14 13 10 13 17 18 18 20 21 21 21 21 22 20 19 17 16 16 17 17 18 18 17 16 14 12
10 10 15 18 20 17 16 6 10 12 13 4 10 14 10 3 2 7 5 2 5 11 10 11 12 11 12 14 16 17 19 20 21 21 20 21 20 18 17 16 16 16 16 18 19 17 16 15 13
16 14 20 22 21 22 18 17 5 11 12 14 10 12 13 5 5 5 5 2 4 11 11 11 14 13 9 10 12 13 17 19 20 20 20 20 18 17 17 15 14 15 16 19 19 18 17 16 13
14 16 26 20 19 23 17 5 9 10 14 15 5 11 10 11 3 4 2 0 5 10 8 13 16 16 14 13 10 13 14 16 19 19 19 18 18 17 15 13 13 15 16 18 18 18 18 16 13
18 16 19 23 23 21 17 15 14 15 17 17 16 19 19 19 15 10 10 6 5 7 9 10 15 17 17 16 12 13 14 15 18 18 18 18 14 16 16 14 14 15 15 17 17 17 18 17 14
19 19 24 23 23 21 19 18 19 22 22 24 23 22 19 18 17 15 16 13 13 12 12 11 14 15 17 14 16 12 13 14 15 16 17 14 14 14 15 15 14 13 14 15 16 17 17 15 11
22 23 22 25 24 21 22 25 23 26 26 24 22 21 20 20 18 18 17 18 15 16 13 14 13 16 17 13 13 10 10 10 11 17 16 13 12 11 11 10 10 10 13 11 12 13 11 13 11
25 25 24 24 24 23 29 29 30 26 27 26 26 27 26 24 22 21 20 20 18 19 19 18 17 15 16 12 12 13 12 11 9 12 17 11 9 11 11 10 13 11 11 13 13 10 12 12 12
26 26 26 25 25 27 30 30 30 29 29 29 30 29 28 26 25 23 23 21 19 17 20 21 20 16 15 14 13 12 12 13 14 14 15 12 13 12 12 11 12 11 13 12 12 12 12 12 12
27 29 29 28 26 29 33 35 31 31 30 29 30 30 26 25 25 23 24 23 20 18 20 21 22 17 17 15 14 12 12 14 12 13 15 16 12 12 11 11 12 12 12 12 11 12 12 11 11
22 27 26 23 27 32 29 36 36 31 32 31 29 26 24 22 22 23 23 23 22 20 20 21 20 20 18 22 17 12 14 12 13 14 18 18 15 14 13 11 11 11 10 13 11 12 11 11 11
18 21 20 17 30 29 31 32 23 24 22 20 18 17 20 21 22 21 21 22 22 23 22 22 19 22 20 17 16 14 11 12 11 11 13 18 18 17 14 12 11 12 9 10 11 10 10 12 12
9 17 29 29 28 30 32 37 23 24 24 19 18 16 18 18 19 19 21 22 22 23 23 23 22 22 22 19 15 17 19 12 11 11 12 19 19 18 15 12 12 15 10 10 11 10 11 11 12
17 19 24 30 23 22 24 29 23 21 26 25 23 23 21 20 20 18 19 20 20 22 21 21 20 21 19 15 15 14 13 15 12 13 14 20 15 19 16 13 13 15 12 11 11 13 12 11 11
33 34 34 29 23 23 27 29 27 26 28 26 26 24 23 23 22 22 19 19 19 19 20 22 20 22 16 15 14 13 15 13 13 12 19 21 17 18 17 13 14 16 15 15 15 12 15 12 11
30 33 35 26 22 25 26 38 29 27 27 30 28 27 26 24 22 21 20 18 19 19 19 20 21 20 20 15 14 12 13 14 11 11 15 16 19 17 16 16 15 18 14 16 17 15 11 11 12
26 31 25 28 21 25 27 43 30 29 34 32 29 28 27 27 26 21 21 16 8 10 13 16 18 20 19 21 14 10 9 9 8 10 11 15 20 19 19 19 14 17 14 13 15 17 19 14 13
27 27 30 30 21 18 12 30 20 21 23 18 18 18 20 18 21 20 20 19 16 14 14 18 19 22 20 20 14 18 12 12 10 11 12 15 20 20 20 17 14 14 12 14 15 15 16 15 16
28 23 29 27 21 20 23 13 35 14 17 17 5 3 5 9 5 5 3 7 7 8 6 11 14 19 19 19 19 16 15 11 10 10 14 15 16 19 20 19 18 17 13 14 17 16 16 16 14
28 29 27 21 19 13 37 19 34 17 21 16 14 9 10 9 7 6 6 6 8 7 8 11 14 17 15 15 20 21 20 16 12 13 11 11 11 14 20 21 19 18 17 16 16 18 20 17 16
23 23 12 10 12 17 28 19 30 7 13 2 15 14 12 11 9 8 9 6 4 3 3 5 9 15 17 18 18 20 20 20 17 14 13 12 11 13 16 20 20 17 18 18 17 19 19 20 16
23 24 9 14 6 13 24 11 14 3 5 11 17 13 11 11 9 8 4 3 3 1 4 6 2 4 8 10 14 17 18 13 14 15 12 13 12 12 16 17 18 20 20 18 18 15 15 19 17
27 20 32 26 27 15 4 4 18 15 13 15 14 13 12 10 9 8 7 6 6 7 6 6 7 5 4 5 9 11 14 17 15 19 17 13 14 12 18 19 19 18 20 20 18 15 18 17 19
7 5 12 11 12 19 19 23 6 18 15 14 11 13 12 10 9 8 7 7 8 8 8 10 9 6 6 6 6 5 8 10 14 16 19 19 17 17 17 19 21 21 21 21 21 17 17 19 15
2 3 4 2 3 7 8 4 5 16 15 12 8 7 7 7 8 9 9 8 7 7 8 9 10 9 8 7 7 6 6 10 11 11 17 18 17 18 17 19 20 21 20 20 20 20 20 21 19
3 1 2 4 7 2 2 5 7 15 11 6 3 2 1 3 5 6 7 11 12 10 7 8 9 9 10 8 7 8 8 9 11 11 12 15 17 17 18 18 19 21 20 20 21 21 18 21 21
Wind_Direction
198 212 233 248 248 226 274 276 95 280 266 74 327 281 300 299 285 295 20 60 4 349 125 164 138 151 152 150 147 150 152 150 148 145 147 145 146 140 140 138 138 139 135 135 136 130 124 118 109
215 223 237 270 257 263 264 71 174 45 21 285 276 274 254 264 289 323 322 31 5 120 149 168 143 148 149 151 151 155 155 153 150 149 149 150 150 146 146 141 139 141 135 143 136 132 126 119 109
260 230 265 239 240 258 274 46 332 110 194 257 291 256 280 265 3 331 345 349 308 100 185 139 136 146 147 151 153 157 157 156 153 153 152 153 153 150 145 144 142 144 144 146 138 133 127 117 107
203 211 247 254 256 272 281 275 190 243 273 168 280 280 231 266 319 344 346 359 155 129 197 132 136 158 151 154 156 160 159 158 157 157 156 153 153 150 146 142 145 148 147 146 138 134 128 113 110
242 263 254 254 252 261 268 281 290 274 288 296 284 273 285 202 107 15 353 8 173 140 145 147 136 166 163 162 159 162 162 159 158 159 156 152 153 147 143 142 145 148 149 142 135 134 128 115 113
235 232 259 260 265 261 252 242 234 270 282 269 260 262 272 123 239 357 1 8 152 150 173 148 144 160 168 163 165 164 162 161 158 159 155 151 148 147 144 147 148 150 147 138 133 136 128 121 118
245 255 252 263 283 289 286 302 295 284 283 276 239 285 289 155 109 3 4 358 162 145 173 159 169 165 156 156 155 161 168 164 157 157 154 149 142 144 143 147 150 149 145 140 140 136 129 126 124
253 258 263 267 269 272 274 235 297 273 273 307 316 268 274 241 100 358 263 266 192 136 186 179 175 175 172 171 152 155 166 165 159 156 150 139 137 138 140 140 147 147 146 145 142 135 130 126 125
248 259 257 259 264 269 272 272 204 240 272 268 269 267 275 280 296 285 247 194 210 173 195 189 184 179 181 171 165 155 163 164 154 151 143 140 158 158 153 163 142 145 147 149 143 138 131 128 130
227 247 252 260 274 288 295 289 281 282 275 271 267 261 259 258 255 247 250 237 192 203 194 193 194 185 185 180 165 170 167 174 174 172 166 169 164 173 175 138 134 140 141 141 143 137 133 154 149
232 244 266 279 287 294 291 276 276 278 274 271 273 277 269 258 257 256 249 238 210 193 197 193 192 187 190 191 170 181 178 182 183 178 178 183 166 168 163 145 153 159 156 159 155 148 169 169 162
247 251 257 271 282 284 275 283 281 279 278 281 281 276 271 265 256 252 240 243 235 179 194 190 189 191 195 186 183 189 178 182 179 178 182 183 172 169 169 162 170 171 176 165 173 177 184 166 173
260 260 264 271 273 272 277 274 279 278 276 277 273 269 265 260 254 245 245 239 239 205 191 189 188 191 188 199 185 192 192 181 184 180 185 188 183 175 178 162 171 175 182 169 174 181 186 173 171
282 282 278 278 278 279 281 278 281 274 276 272 266 262 259 252 245 242 234 232 228 221 193 192 191 185 187 183 199 196 197 188 187 176 183 203 189 170 176 165 177 178 185 170 182 180 183 180 174
270 273 269 266 269 271 275 272 266 271 267 258 260 260 258 245 240 231 233 227 227 222 195 192 191 180 197 193 185 198 192 196 193 183 187 198 188 171 177 173 181 184 186 172 186 179 180 180 179
266 267 274 251 254 256 255 268 268 265 276 272 249 250 254 247 231 230 227 232 223 219 203 185 192 191 190 201 189 186 197 199 184 196 188 192 191 174 180 182 184 167 189 184 189 180 178 185 182
192 257 256 265 256 262 253 266 278 279 271 265 276 257 254 253 237 225 221 224 228 224 218 191 186 199 192 201 198 195 188 193 181 182 193 195 191 183 185 186 182 164 191 196 185 180 189 184 183
240 243 244 254 253 254 256 264 264 258 266 269 239 255 245 255 256 223 225 227 222 225 218 215 181 192 195 199 200 197 187 194 183 182 189 191 198 186 185 190 176 171 182 189 190 187 187 184 185
243 251 263 271 281 282 267 270 274 278 275 263 260 256 253 245 242 251 223 216 217 218 215 214 210 184 185 199 200 207 196 184 195 182 191 187 192 189 192 192 175 182 187 184 190 185 186 184 181
242 257 263 276 288 278 275 269 268 266 271 267 259 254 248 246 239 230 250 214 212 211 222 215 215 202 189 195 206 203 203 204 179 188 188 197 191 194 193 194 189 183 185 188 185 187 181 189 181
226 239 254 260 264 260 271 277 272 264 250 248 252 250 253 249 241 223 214 229 230 223 215 222 223 208 206 200 196 191 203 209 179 184 190 194 191 192 194 200 192 183 184 186 185 188 190 184 180
244 227 235 247 257 255 251 279 263 279 278 280 252 235 239 232 231 221 214 206 199 219 226 223 227 229 206 195 187 188 202 201 199 195 192 188 191 190 192 193 188 184 188 186 190 193 192 191 185
246 250 256 251 252 258 253 259 274 275 264 255 197 38 59 76 94 143 146 164 181 201 242 266 257 225 220 198 187 186 197 208 202 202 196 194 190 190 190 188 188 188 195 187 189 191 203 198 189
241 248 258 261 260 247 252 226 273 252 255 238 158 150 127 117 124 135 133 157 175 193 210 211 226 235 225 221 189 191 192 200 206 196 202 196 193 192 191 190 191 192 195 191 192 194 199 204 200
238 254 235 226 225 234 243 221 247 244 247 263 125 131 124 132 132 145 162 164 126 133 188 216 222 225 213 220 191 195 199 196 203 203 194 195 193 196 193 195 193 193 196 197 195 197 199 201 201
218 233 235 236 213 249 237 217 239 348 242 140 121 121 120 113 114 93 78 120 137 91 16 333 313 222 226 236 215 210 205 208 208 206 199 201 196 197 192 195 197 195 195 197 198 201 204 205 208
230 225 228 247 262 274 233 276 70 70 64 89 118 121 108 105 96 77 78 31 38 5 19 358 337 323 282 234 231 216 223 214 213 211 208 201 200 188 193 192 196 196 196 197 195 202 204 207 208
246 337 223 203 237 237 232 235 156 143 110 97 82 68 67 52 55 71 36 29 24 8 10 357 343 341 335 300 277 271 303 254 239 226 217 207 202 200 191 194 198 197 199 197 197 200 204 207 211
319 194 250 124 93 260 259 133 310 115 120 108 83 67 68 53 28 19 30 21 21 6 1 356 347 345 341 336 316 300 301 294 291 253 239 231 209 193 194 193 194 199 199 201 204 204 203 205 206
311 312 58 333 117 130 342 100 122 118 113 109 108 136 114 26 10 7 358 354 356 357 357 347 338 338 340 326 317 315 297 287 300 303 289 238 230 212 194 190 195 199 201 198 202 205 202 206 207